Cape Barren Island Airport


Codes: YCBN/CBI
Name: Cape Barren Island Airport
City:
Country: Australia
Elevation: 0 ft.

Photos at Cape Barren Island Airport


   Photos courtesy of SpottingLog. You can add your own sightings and photos by signing up for a free trial today.



No photos found.

Weather at Cape Barren Island Airport


Time (UTC)DescriptionTempratureWindCloud coverageVisibilityPressureHumidity
21-Jun-2024 12:00Clear Sky13°C4 mph, SE7%10000m1024hPa62%
21-Jun-2024 15:00Few Clouds12°C4 mph, SW11%10000m1025hPa64%
21-Jun-2024 18:00Scattered Clouds12°C9 mph, SW27%10000m1026hPa67%
21-Jun-2024 21:00Clear Sky12°C7 mph, SW6%10000m1028hPa66%
22-Jun-2024 00:00Clear Sky11°C4 mph, SW3%10000m1029hPa71%
22-Jun-2024 03:00Clear Sky12°C7 mph, W10%10000m1028hPa71%
22-Jun-2024 06:00Clear Sky12°C4 mph, W9%10000m1027hPa70%
22-Jun-2024 09:00Clear Sky12°C4 mph, NW10%10000m1028hPa66%
22-Jun-2024 12:00Scattered Clouds12°C4 mph, N36%10000m1028hPa66%
22-Jun-2024 15:00Scattered Clouds12°C4 mph, N42%10000m1027hPa68%
22-Jun-2024 18:00Broken Clouds12°C0 mph, SE55%10000m1026hPa68%
22-Jun-2024 21:00Scattered Clouds12°C2 mph, E25%10000m1026hPa70%
23-Jun-2024 00:00Few Clouds11°C2 mph, SE18%10000m1026hPa70%
23-Jun-2024 03:00Clear Sky11°C4 mph, S5%10000m1024hPa67%
23-Jun-2024 06:00Scattered Clouds12°C4 mph, SE29%10000m1023hPa69%
23-Jun-2024 09:00Overcast Clouds13°C7 mph, E100%10000m1023hPa77%
23-Jun-2024 12:00Broken Clouds12°C4 mph, SE59%10000m1022hPa83%
23-Jun-2024 15:00Few Clouds12°C4 mph, SE23%10000m1020hPa85%
23-Jun-2024 18:00Light Rain12°C7 mph, SE59%10000m1019hPa86%
23-Jun-2024 21:00Light Rain12°C4 mph, NE100%10000m1018hPa82%
24-Jun-2024 00:00Light Rain12°C4 mph, NE100%10000m1018hPa84%
24-Jun-2024 03:00Light Rain11°C2 mph, E100%10000m1016hPa85%
24-Jun-2024 06:00Overcast Clouds12°C2 mph, S97%10000m1015hPa79%
24-Jun-2024 09:00Overcast Clouds12°C0 mph, N100%10000m1014hPa75%
24-Jun-2024 12:00Overcast Clouds12°C4 mph, N100%10000m1014hPa76%
24-Jun-2024 15:00Overcast Clouds12°C9 mph, N100%10000m1013hPa80%
24-Jun-2024 18:00Overcast Clouds12°C11 mph, N100%10000m1013hPa71%
24-Jun-2024 21:00Overcast Clouds12°C9 mph, NE99%10000m1013hPa72%
25-Jun-2024 00:00Broken Clouds11°C7 mph, N60%10000m1013hPa69%
25-Jun-2024 03:00Overcast Clouds12°C7 mph, N97%10000m1012hPa69%
25-Jun-2024 06:00Broken Clouds13°C11 mph, N77%10000m1012hPa65%
25-Jun-2024 09:00Light Rain12°C9 mph, N30%10000m1013hPa69%
25-Jun-2024 12:00Light Rain12°C9 mph, N27%10000m1013hPa74%
25-Jun-2024 15:00Light Rain12°C9 mph, N37%10000m1012hPa71%
25-Jun-2024 18:00Light Rain13°C16 mph, N55%10000m1012hPa69%
25-Jun-2024 21:00Overcast Clouds12°C16 mph, N98%10000m1012hPa71%
26-Jun-2024 00:00Overcast Clouds12°C18 mph, N86%10000m1012hPa73%
26-Jun-2024 03:00Few Clouds12°C18 mph, NW13%10000m1010hPa72%
26-Jun-2024 06:00Light Rain11°C22 mph, NW57%10000m1011hPa81%
26-Jun-2024 09:00Light Rain12°C29 mph, NW99%10000m1011hPa69%